Year,Month,Day,Hour,Minute,Value (Times are PST for temperature in C)
2017,06,27,00,00,15.70
2017,06,27,00,01,15.60
2017,06,27,00,02,15.60
2017,06,27,00,03,15.60
2017,06,27,00,04,15.60
2017,06,27,00,05,15.60
2017,06,27,00,06,15.60
2017,06,27,00,07,15.60
2017,06,27,00,08,15.60
2017,06,27,00,09,15.60
2017,06,27,00,10,15.50
2017,06,27,00,11,15.60
2017,06,27,00,12,15.60
2017,06,27,00,13,15.60
2017,06,27,00,14,15.60
2017,06,27,00,15,15.60
2017,06,27,00,16,15.50
2017,06,27,00,17,15.50
2017,06,27,00,18,15.50
2017,06,27,00,19,15.50
2017,06,27,00,20,15.50
2017,06,27,00,21,15.40
2017,06,27,00,22,15.40
2017,06,27,00,23,15.40
2017,06,27,00,24,15.40
2017,06,27,00,25,15.40
2017,06,27,00,26,15.40
2017,06,27,00,27,15.40
2017,06,27,00,28,15.40
2017,06,27,00,29,15.40
2017,06,27,00,30,15.40
2017,06,27,00,31,15.40
2017,06,27,00,32,15.40
2017,06,27,00,33,15.40
2017,06,27,00,34,15.40
2017,06,27,00,35,15.40
2017,06,27,00,36,15.40
2017,06,27,00,37,15.30
2017,06,27,00,38,15.30
2017,06,27,00,39,15.30
2017,06,27,00,40,15.30
2017,06,27,00,41,15.30
2017,06,27,00,42,15.30
2017,06,27,00,43,15.30
2017,06,27,00,44,15.30
2017,06,27,00,45,15.30
2017,06,27,00,46,15.20
2017,06,27,00,47,15.20
2017,06,27,00,48,15.20
2017,06,27,00,49,15.20
2017,06,27,00,50,15.20
2017,06,27,00,51,15.10
2017,06,27,00,52,15.10
2017,06,27,00,53,15.10
2017,06,27,00,54,15.10
2017,06,27,00,55,15.10
2017,06,27,00,56,15.10
2017,06,27,00,57,15.10
2017,06,27,00,58,15.10
2017,06,27,00,59,15.10
2017,06,27,01,00,15.10
2017,06,27,01,01,15.10
2017,06,27,01,02,15.10
2017,06,27,01,03,15.10
2017,06,27,01,04,15.00
2017,06,27,01,05,15.00
2017,06,27,01,06,15.00
2017,06,27,01,07,15.00
2017,06,27,01,08,14.90
2017,06,27,01,09,14.90
2017,06,27,01,10,14.90
2017,06,27,01,11,14.90
2017,06,27,01,12,14.90
2017,06,27,01,13,14.90
2017,06,27,01,14,14.90
2017,06,27,01,15,14.90
2017,06,27,01,16,14.90
2017,06,27,01,17,14.90
2017,06,27,01,18,14.90
2017,06,27,01,19,14.90
2017,06,27,01,20,14.90
2017,06,27,01,21,14.90
2017,06,27,01,22,14.90
2017,06,27,01,23,14.90
2017,06,27,01,24,14.90
2017,06,27,01,25,14.90
2017,06,27,01,26,14.90
2017,06,27,01,27,14.90
2017,06,27,01,28,14.90
2017,06,27,01,29,14.80
2017,06,27,01,30,14.80
2017,06,27,01,31,14.80
2017,06,27,01,32,14.80
2017,06,27,01,33,14.80
2017,06,27,01,34,14.80
2017,06,27,01,35,14.80
2017,06,27,01,36,14.80
2017,06,27,01,37,14.80
2017,06,27,01,38,14.80
2017,06,27,01,39,14.80
2017,06,27,01,40,14.80
2017,06,27,01,41,14.80
2017,06,27,01,42,14.80
2017,06,27,01,43,14.80
2017,06,27,01,44,14.80
2017,06,27,01,45,14.80
2017,06,27,01,46,14.80
2017,06,27,01,47,14.80
2017,06,27,01,48,14.70
2017,06,27,01,49,14.70
2017,06,27,01,50,14.70
2017,06,27,01,51,14.70
2017,06,27,01,52,14.70
2017,06,27,01,53,14.70
2017,06,27,01,54,14.70
2017,06,27,01,55,14.70
2017,06,27,01,56,14.60
2017,06,27,01,57,14.60
2017,06,27,01,58,14.60
2017,06,27,01,59,14.60
2017,06,27,02,00,14.60
2017,06,27,02,01,14.60
2017,06,27,02,02,14.60
2017,06,27,02,03,14.60
2017,06,27,02,04,14.60
2017,06,27,02,05,14.60
2017,06,27,02,06,14.60
2017,06,27,02,07,14.60
2017,06,27,02,08,14.60
2017,06,27,02,09,14.60
2017,06,27,02,10,14.60
2017,06,27,02,11,14.60
2017,06,27,02,12,14.60
2017,06,27,02,13,14.60
2017,06,27,02,14,14.60
2017,06,27,02,15,14.60
2017,06,27,02,16,14.60
2017,06,27,02,17,14.60
2017,06,27,02,18,14.60
2017,06,27,02,19,14.60
2017,06,27,02,20,14.60
2017,06,27,02,21,14.50
2017,06,27,02,22,14.50
2017,06,27,02,23,14.50
2017,06,27,02,24,14.50
2017,06,27,02,25,14.40
2017,06,27,02,26,14.40
2017,06,27,02,27,14.40
2017,06,27,02,28,14.40
2017,06,27,02,29,14.40
2017,06,27,02,30,14.40
2017,06,27,02,31,14.40
2017,06,27,02,32,14.40
2017,06,27,02,33,14.40
2017,06,27,02,34,14.40
2017,06,27,02,35,14.30
2017,06,27,02,36,14.30
2017,06,27,02,37,14.30
2017,06,27,02,38,14.30
2017,06,27,02,39,14.30
2017,06,27,02,40,14.30
2017,06,27,02,41,14.30
2017,06,27,02,42,14.30
2017,06,27,02,43,14.30
2017,06,27,02,44,14.30
2017,06,27,02,45,14.30
2017,06,27,02,46,14.30
2017,06,27,02,47,14.30
2017,06,27,02,48,14.30
2017,06,27,02,49,14.30
2017,06,27,02,50,14.30
2017,06,27,02,51,14.30
2017,06,27,02,52,14.20
2017,06,27,02,53,14.20
2017,06,27,02,54,14.20
2017,06,27,02,55,14.20
2017,06,27,02,56,14.20
2017,06,27,02,57,14.20
2017,06,27,02,58,14.20
2017,06,27,02,59,14.20
2017,06,27,03,00,14.20
2017,06,27,03,01,14.10
2017,06,27,03,02,14.10
2017,06,27,03,03,14.10
2017,06,27,03,04,14.10
2017,06,27,03,05,14.10
2017,06,27,03,06,14.10
2017,06,27,03,07,14.10
2017,06,27,03,08,14.10
2017,06,27,03,09,14.00
2017,06,27,03,10,14.00
2017,06,27,03,11,14.00
2017,06,27,03,12,14.00
2017,06,27,03,13,14.00
2017,06,27,03,14,14.00
2017,06,27,03,15,14.00
2017,06,27,03,16,14.00
2017,06,27,03,17,14.00
2017,06,27,03,18,14.00
2017,06,27,03,19,13.90
2017,06,27,03,20,13.90
2017,06,27,03,21,13.90
2017,06,27,03,22,13.90
2017,06,27,03,23,13.90
2017,06,27,03,24,13.80
2017,06,27,03,25,13.80
2017,06,27,03,26,13.80
2017,06,27,03,27,13.80
2017,06,27,03,28,13.80
2017,06,27,03,29,13.80
2017,06,27,03,30,13.80
2017,06,27,03,31,13.70
2017,06,27,03,32,13.70
2017,06,27,03,33,13.70
2017,06,27,03,34,13.70
2017,06,27,03,35,13.70
2017,06,27,03,36,13.70
2017,06,27,03,37,13.70
2017,06,27,03,38,13.70
2017,06,27,03,39,13.70
2017,06,27,03,40,13.70
2017,06,27,03,41,13.60
2017,06,27,03,42,13.60
2017,06,27,03,43,13.60
2017,06,27,03,44,13.60
2017,06,27,03,45,13.60
2017,06,27,03,46,13.60
2017,06,27,03,47,13.50
2017,06,27,03,48,13.50
2017,06,27,03,49,13.50
2017,06,27,03,50,13.40
2017,06,27,03,51,13.40
2017,06,27,03,52,13.40
2017,06,27,03,53,13.40
2017,06,27,03,54,13.40
2017,06,27,03,55,13.30
2017,06,27,03,56,13.30
2017,06,27,03,57,13.30
2017,06,27,03,58,13.20
2017,06,27,03,59,13.20
2017,06,27,04,00,13.20
2017,06,27,04,01,13.20
2017,06,27,04,02,13.20
2017,06,27,04,03,13.20
2017,06,27,04,04,13.20
2017,06,27,04,05,13.20
2017,06,27,04,06,13.20
2017,06,27,04,07,13.10
2017,06,27,04,08,13.10
2017,06,27,04,09,13.10
2017,06,27,04,10,13.10
2017,06,27,04,11,13.10
2017,06,27,04,12,13.10
2017,06,27,04,13,13.10
2017,06,27,04,14,13.10
2017,06,27,04,15,13.10
2017,06,27,04,16,13.10
2017,06,27,04,17,13.10
2017,06,27,04,18,13.10
2017,06,27,04,19,13.10
2017,06,27,04,20,13.10
2017,06,27,04,21,13.10
2017,06,27,04,22,13.10
2017,06,27,04,23,13.10
2017,06,27,04,24,13.10
2017,06,27,04,25,13.20
2017,06,27,04,26,13.20
2017,06,27,04,27,13.20
2017,06,27,04,28,13.20
2017,06,27,04,29,13.20
2017,06,27,04,30,13.20
2017,06,27,04,31,13.20
2017,06,27,04,32,13.20
2017,06,27,04,33,13.20
2017,06,27,04,34,13.20
2017,06,27,04,35,13.20
2017,06,27,04,36,13.10
2017,06,27,04,37,13.10
2017,06,27,04,38,13.10
2017,06,27,04,39,13.10
2017,06,27,04,40,13.10
2017,06,27,04,41,13.10
2017,06,27,04,42,13.10
2017,06,27,04,43,13.10
2017,06,27,04,44,13.10
2017,06,27,04,45,13.10
2017,06,27,04,46,13.10
2017,06,27,04,47,13.10
2017,06,27,04,48,13.10
2017,06,27,04,49,13.10
2017,06,27,04,50,13.10
2017,06,27,04,51,13.10
2017,06,27,04,52,13.10
2017,06,27,04,53,13.00
2017,06,27,04,54,13.00
2017,06,27,04,55,13.00
2017,06,27,04,56,13.00
2017,06,27,04,57,13.00
2017,06,27,04,58,13.00
2017,06,27,04,59,12.90
2017,06,27,05,00,12.90
2017,06,27,05,01,13.00
2017,06,27,05,02,13.00
2017,06,27,05,03,13.00
2017,06,27,05,04,13.00
2017,06,27,05,05,13.00
2017,06,27,05,06,13.00
2017,06,27,05,07,13.10
2017,06,27,05,08,13.10
2017,06,27,05,09,13.10
2017,06,27,05,10,13.10
2017,06,27,05,11,13.10
2017,06,27,05,12,13.10
2017,06,27,05,13,13.10
2017,06,27,05,14,13.10
2017,06,27,05,15,13.10
2017,06,27,05,16,13.10
2017,06,27,05,17,13.10
2017,06,27,05,18,13.10
2017,06,27,05,19,13.10
2017,06,27,05,20,13.10
2017,06,27,05,21,13.10
2017,06,27,05,22,13.00
2017,06,27,05,23,13.00
2017,06,27,05,24,13.00
2017,06,27,05,25,13.00
2017,06,27,05,26,13.00
2017,06,27,05,27,13.00
2017,06,27,05,28,12.90
2017,06,27,05,29,12.90
2017,06,27,05,30,12.90
2017,06,27,05,31,12.90
2017,06,27,05,32,12.90
2017,06,27,05,33,12.90
2017,06,27,05,34,12.90
2017,06,27,05,35,12.90
2017,06,27,05,36,12.90
2017,06,27,05,37,12.90
2017,06,27,05,38,12.90
2017,06,27,05,39,12.90
2017,06,27,05,40,12.90
2017,06,27,05,41,12.90
2017,06,27,05,42,12.90
2017,06,27,05,43,12.90
2017,06,27,05,44,12.90
2017,06,27,05,45,12.90
2017,06,27,05,46,13.00
2017,06,27,05,47,13.00
2017,06,27,05,48,13.00
2017,06,27,05,49,13.00
2017,06,27,05,50,13.00
2017,06,27,05,51,13.00
2017,06,27,05,52,13.00
2017,06,27,05,53,13.00
2017,06,27,05,54,13.00
2017,06,27,05,55,13.00
2017,06,27,05,56,13.00
2017,06,27,05,57,13.00
2017,06,27,05,58,13.00
2017,06,27,05,59,13.00
2017,06,27,06,00,13.00
2017,06,27,06,01,13.00
2017,06,27,06,02,13.00
2017,06,27,06,03,13.00
2017,06,27,06,04,13.00
2017,06,27,06,05,13.10
2017,06,27,06,06,13.10
2017,06,27,06,07,13.10
2017,06,27,06,08,13.10
2017,06,27,06,09,13.10
2017,06,27,06,10,13.10
2017,06,27,06,11,13.10
2017,06,27,06,12,13.10
2017,06,27,06,13,13.10
2017,06,27,06,14,13.10
2017,06,27,06,15,13.10
2017,06,27,06,16,13.20
2017,06,27,06,17,13.20
2017,06,27,06,18,13.20
2017,06,27,06,19,13.20
2017,06,27,06,20,13.20
2017,06,27,06,21,13.20
2017,06,27,06,22,13.20
2017,06,27,06,23,13.20
2017,06,27,06,24,13.20
2017,06,27,06,25,13.30
2017,06,27,06,26,13.30
2017,06,27,06,27,13.30
2017,06,27,06,28,13.30
2017,06,27,06,29,13.30
2017,06,27,06,30,13.30
2017,06,27,06,31,13.30
2017,06,27,06,32,13.30
2017,06,27,06,33,13.30
2017,06,27,06,34,13.30
2017,06,27,06,35,13.30
2017,06,27,06,36,13.40
2017,06,27,06,37,13.40
2017,06,27,06,38,13.40
2017,06,27,06,39,13.40
2017,06,27,06,40,13.40
2017,06,27,06,41,13.40
2017,06,27,06,42,13.40
2017,06,27,06,43,13.40
2017,06,27,06,44,13.40
2017,06,27,06,45,13.40
2017,06,27,06,46,13.50
2017,06,27,06,47,13.50
2017,06,27,06,48,13.50
2017,06,27,06,49,13.50
2017,06,27,06,50,13.50
2017,06,27,06,51,13.50
2017,06,27,06,52,13.60
2017,06,27,06,53,13.60
2017,06,27,06,54,13.60
2017,06,27,06,55,13.60
2017,06,27,06,56,13.60
2017,06,27,06,57,13.60
2017,06,27,06,58,13.60
2017,06,27,06,59,13.60
2017,06,27,07,00,13.60
2017,06,27,07,01,13.60
2017,06,27,07,02,13.60
2017,06,27,07,03,13.60
2017,06,27,07,04,13.70
2017,06,27,07,05,13.70
2017,06,27,07,06,13.70
2017,06,27,07,07,13.70
2017,06,27,07,08,13.70
2017,06,27,07,09,13.70
2017,06,27,07,10,13.70
2017,06,27,07,11,13.70
2017,06,27,07,12,13.80
2017,06,27,07,13,13.80
2017,06,27,07,14,13.80
2017,06,27,07,15,13.80
2017,06,27,07,16,13.80
2017,06,27,07,17,13.80
2017,06,27,07,18,13.90
2017,06,27,07,19,13.90
2017,06,27,07,20,13.90
2017,06,27,07,21,13.90
2017,06,27,07,22,14.00
2017,06,27,07,23,14.00
2017,06,27,07,24,14.00
2017,06,27,07,25,14.00
2017,06,27,07,26,14.00
2017,06,27,07,27,14.00
2017,06,27,07,28,14.00
2017,06,27,07,29,14.00
2017,06,27,07,30,14.00
2017,06,27,07,31,14.00
2017,06,27,07,32,14.00
2017,06,27,07,33,14.00
2017,06,27,07,34,14.00
2017,06,27,07,35,14.00
2017,06,27,07,36,14.00
2017,06,27,07,37,14.00
2017,06,27,07,38,14.00
2017,06,27,07,39,14.00
2017,06,27,07,40,14.10
2017,06,27,07,41,14.10
2017,06,27,07,42,14.20
2017,06,27,07,43,14.20
2017,06,27,07,44,14.20
2017,06,27,07,45,14.20
2017,06,27,07,46,14.20
2017,06,27,07,47,14.20
2017,06,27,07,48,14.20
2017,06,27,07,49,14.30
2017,06,27,07,50,14.30
2017,06,27,07,51,14.30
2017,06,27,07,52,14.30
2017,06,27,07,53,14.40
2017,06,27,07,54,14.40
2017,06,27,07,55,14.50
2017,06,27,07,56,14.50
2017,06,27,07,57,14.60
2017,06,27,07,58,14.60
2017,06,27,07,59,14.60
2017,06,27,08,00,14.60
2017,06,27,08,01,14.60
2017,06,27,08,02,14.60
2017,06,27,08,03,14.60
2017,06,27,08,04,14.60
2017,06,27,08,05,14.50
2017,06,27,08,06,14.50
2017,06,27,08,07,14.50
2017,06,27,08,08,14.50
2017,06,27,08,09,14.60
2017,06,27,08,10,14.60
2017,06,27,08,11,14.70
2017,06,27,08,12,14.70
2017,06,27,08,13,14.70
2017,06,27,08,14,14.70
2017,06,27,08,15,14.80
2017,06,27,08,16,14.80
2017,06,27,08,17,14.80
2017,06,27,08,18,14.90
2017,06,27,08,19,14.90
2017,06,27,08,20,14.90
2017,06,27,08,21,14.90
2017,06,27,08,22,14.90
2017,06,27,08,23,14.90
2017,06,27,08,24,14.90
2017,06,27,08,25,14.90
2017,06,27,08,26,14.90
2017,06,27,08,27,14.90
2017,06,27,08,28,15.00
2017,06,27,08,29,15.00
2017,06,27,08,30,15.00
2017,06,27,08,31,15.10
2017,06,27,08,32,15.00
2017,06,27,08,33,15.00
2017,06,27,08,34,15.00
2017,06,27,08,35,15.00
2017,06,27,08,36,15.10
2017,06,27,08,37,15.10
2017,06,27,08,38,15.10
2017,06,27,08,39,15.10
2017,06,27,08,40,15.20
2017,06,27,08,41,15.10
2017,06,27,08,42,15.10
2017,06,27,08,43,15.00
2017,06,27,08,44,15.00
2017,06,27,08,45,15.00
2017,06,27,08,46,15.00
2017,06,27,08,47,15.00
2017,06,27,08,48,15.00
2017,06,27,08,49,15.10
2017,06,27,08,50,15.10
2017,06,27,08,51,15.20
2017,06,27,08,52,15.20
2017,06,27,08,53,15.20
2017,06,27,08,54,15.30
2017,06,27,08,55,15.30
2017,06,27,08,56,15.30
2017,06,27,08,57,15.30
2017,06,27,08,58,15.30
2017,06,27,08,59,15.30
2017,06,27,09,00,15.30
2017,06,27,09,01,15.30
2017,06,27,09,02,15.30
2017,06,27,09,03,15.30
2017,06,27,09,04,15.30
2017,06,27,09,05,15.30
2017,06,27,09,06,15.40
2017,06,27,09,07,15.40
2017,06,27,09,08,15.50
2017,06,27,09,09,15.50
2017,06,27,09,10,15.60
2017,06,27,09,11,15.60
2017,06,27,09,12,15.60
2017,06,27,09,13,15.60
2017,06,27,09,14,15.70
2017,06,27,09,15,15.70
2017,06,27,09,16,15.80
2017,06,27,09,17,15.80
2017,06,27,09,18,15.80
2017,06,27,09,19,15.80
2017,06,27,09,20,15.80
2017,06,27,09,21,15.90
2017,06,27,09,22,15.90
2017,06,27,09,23,16.00
2017,06,27,09,24,15.90
2017,06,27,09,25,15.90
2017,06,27,09,26,15.90
2017,06,27,09,27,16.00
2017,06,27,09,28,16.00
2017,06,27,09,29,16.00
2017,06,27,09,30,16.00
2017,06,27,09,31,16.00
2017,06,27,09,32,16.10
2017,06,27,09,33,16.10
2017,06,27,09,34,16.20
2017,06,27,09,35,16.20
2017,06,27,09,36,16.30
2017,06,27,09,37,16.30
2017,06,27,09,38,16.30
2017,06,27,09,39,16.30
2017,06,27,09,40,16.30
2017,06,27,09,41,16.30
2017,06,27,09,42,16.30
2017,06,27,09,43,16.40
2017,06,27,09,44,16.40
2017,06,27,09,45,16.30
2017,06,27,09,46,16.40
2017,06,27,09,47,16.40
2017,06,27,09,48,16.50
2017,06,27,09,49,16.50
2017,06,27,09,50,16.50
2017,06,27,09,51,16.50
2017,06,27,09,52,16.60
2017,06,27,09,53,16.60
2017,06,27,09,54,16.60
2017,06,27,09,55,16.60
2017,06,27,09,56,16.60
2017,06,27,09,57,16.60
2017,06,27,09,58,16.60
2017,06,27,09,59,16.60
2017,06,27,10,00,16.70
2017,06,27,10,01,16.70
2017,06,27,10,02,16.70
2017,06,27,10,03,16.70
2017,06,27,10,04,16.60
2017,06,27,10,05,16.60
2017,06,27,10,06,16.60
2017,06,27,10,07,16.50
2017,06,27,10,08,16.50
2017,06,27,10,09,16.40
2017,06,27,10,10,16.40
2017,06,27,10,11,16.50
2017,06,27,10,12,16.50
2017,06,27,10,13,16.60
2017,06,27,10,14,16.70
2017,06,27,10,15,16.70
2017,06,27,10,16,16.80
2017,06,27,10,17,16.80
2017,06,27,10,18,16.80
2017,06,27,10,19,16.80
2017,06,27,10,20,16.80
2017,06,27,10,21,16.80
2017,06,27,10,22,16.90
2017,06,27,10,23,16.90
2017,06,27,10,24,16.90
2017,06,27,10,25,16.90
2017,06,27,10,26,16.90
2017,06,27,10,27,16.90
2017,06,27,10,28,16.90
2017,06,27,10,29,16.90
2017,06,27,10,30,16.90
2017,06,27,10,31,17.00
2017,06,27,10,32,17.00
2017,06,27,10,33,17.10
2017,06,27,10,34,17.10
2017,06,27,10,35,17.20
2017,06,27,10,36,17.10
2017,06,27,10,37,17.10
2017,06,27,10,38,17.10
2017,06,27,10,39,17.20
2017,06,27,10,40,17.30
2017,06,27,10,41,17.30
2017,06,27,10,42,17.30
2017,06,27,10,43,17.30
2017,06,27,10,44,17.40
2017,06,27,10,45,17.40
2017,06,27,10,46,17.40
2017,06,27,10,47,17.40
2017,06,27,10,48,17.40
2017,06,27,10,49,17.40
2017,06,27,10,50,17.40
2017,06,27,10,51,17.40
2017,06,27,10,52,17.30
2017,06,27,10,53,17.30
2017,06,27,10,54,17.30
2017,06,27,10,55,17.30
2017,06,27,10,56,17.40
2017,06,27,10,57,17.40
2017,06,27,10,58,17.40
2017,06,27,10,59,17.40
2017,06,27,11,00,17.40
2017,06,27,11,01,17.50
2017,06,27,11,02,17.50
2017,06,27,11,03,17.50
2017,06,27,11,04,17.50
2017,06,27,11,05,17.50
2017,06,27,11,06,17.50
2017,06,27,11,07,17.40
2017,06,27,11,08,17.50
2017,06,27,11,09,17.50
2017,06,27,11,10,17.50
2017,06,27,11,11,17.50
2017,06,27,11,12,17.40
2017,06,27,11,13,17.40
2017,06,27,11,14,17.50
2017,06,27,11,15,17.60
2017,06,27,11,16,17.60
2017,06,27,11,17,17.70
2017,06,27,11,18,17.80
2017,06,27,11,19,17.90
2017,06,27,11,20,18.00
2017,06,27,11,21,18.10
2017,06,27,11,22,18.10
2017,06,27,11,23,18.10
2017,06,27,11,24,18.10
2017,06,27,11,25,18.00
2017,06,27,11,26,18.00
2017,06,27,11,27,18.10
2017,06,27,11,28,18.10
2017,06,27,11,29,18.10
2017,06,27,11,30,18.10
2017,06,27,11,31,18.00
2017,06,27,11,32,18.10
2017,06,27,11,33,18.10
2017,06,27,11,34,18.10
2017,06,27,11,35,18.10
2017,06,27,11,36,18.10
2017,06,27,11,37,18.10
2017,06,27,11,38,18.20
2017,06,27,11,39,18.20
2017,06,27,11,40,18.30
2017,06,27,11,41,18.40
2017,06,27,11,42,18.40
2017,06,27,11,43,18.40
2017,06,27,11,44,18.50
2017,06,27,11,45,18.50
2017,06,27,11,46,18.40
2017,06,27,11,47,18.40
2017,06,27,11,48,18.40
2017,06,27,11,49,18.50
2017,06,27,11,50,18.50
2017,06,27,11,51,18.50
2017,06,27,11,52,18.50
2017,06,27,11,53,18.50
2017,06,27,11,54,18.50
2017,06,27,11,55,18.50
2017,06,27,11,56,18.50
2017,06,27,11,57,18.50
2017,06,27,11,58,18.60
2017,06,27,11,59,18.60
2017,06,27,12,00,18.70
2017,06,27,12,01,18.70
2017,06,27,12,02,18.60
2017,06,27,12,03,18.60
2017,06,27,12,04,18.60
2017,06,27,12,05,18.60
2017,06,27,12,06,18.50
2017,06,27,12,07,18.60
2017,06,27,12,08,18.70
2017,06,27,12,09,18.80
2017,06,27,12,10,18.80
2017,06,27,12,11,18.80
2017,06,27,12,12,18.80
2017,06,27,12,13,18.80
2017,06,27,12,14,18.80
2017,06,27,12,15,18.80
2017,06,27,12,16,18.90
2017,06,27,12,17,18.90
2017,06,27,12,18,18.90
2017,06,27,12,19,19.00
2017,06,27,12,20,19.10
2017,06,27,12,21,19.10
2017,06,27,12,22,19.10
2017,06,27,12,23,19.10
2017,06,27,12,24,19.10
2017,06,27,12,25,19.10
2017,06,27,12,26,19.10
2017,06,27,12,27,19.10
2017,06,27,12,28,19.10
2017,06,27,12,29,19.10
2017,06,27,12,30,19.20
2017,06,27,12,31,19.10
2017,06,27,12,32,19.10
2017,06,27,12,33,19.10
2017,06,27,12,34,19.20
2017,06,27,12,35,19.20
2017,06,27,12,36,19.30
2017,06,27,12,37,19.20
2017,06,27,12,38,19.10
2017,06,27,12,39,19.10
2017,06,27,12,40,19.10
2017,06,27,12,41,19.20
2017,06,27,12,42,19.20
2017,06,27,12,43,19.30
2017,06,27,12,44,19.30
2017,06,27,12,45,19.30
2017,06,27,12,46,19.30
2017,06,27,12,47,19.30
2017,06,27,12,48,19.30
2017,06,27,12,49,19.30
2017,06,27,12,50,19.20
2017,06,27,12,51,19.20
2017,06,27,12,52,19.20
2017,06,27,12,53,19.20
2017,06,27,12,54,19.20
2017,06,27,12,55,19.30
2017,06,27,12,56,19.30
2017,06,27,12,57,19.30
2017,06,27,12,58,19.30
2017,06,27,12,59,19.30
2017,06,27,13,00,19.40
2017,06,27,13,01,19.40
2017,06,27,13,02,19.50
2017,06,27,13,03,19.50
2017,06,27,13,04,19.60
2017,06,27,13,05,19.70
2017,06,27,13,06,19.80
2017,06,27,13,07,19.80
2017,06,27,13,08,19.90
2017,06,27,13,09,19.90
2017,06,27,13,10,20.00
2017,06,27,13,11,20.10
2017,06,27,13,12,20.10
2017,06,27,13,13,20.10
2017,06,27,13,14,20.10
2017,06,27,13,15,20.10
2017,06,27,13,16,20.10
2017,06,27,13,17,20.10
2017,06,27,13,18,20.10
2017,06,27,13,19,20.10
2017,06,27,13,20,20.10
2017,06,27,13,21,20.10
2017,06,27,13,22,20.10
2017,06,27,13,23,20.10
2017,06,27,13,24,20.10
2017,06,27,13,25,20.10
2017,06,27,13,26,20.10
2017,06,27,13,27,20.10
2017,06,27,13,28,20.10
2017,06,27,13,29,20.10
2017,06,27,13,30,20.20
2017,06,27,13,31,20.20
2017,06,27,13,32,20.20
2017,06,27,13,33,20.20
2017,06,27,13,34,20.20
2017,06,27,13,35,20.20
2017,06,27,13,36,20.20
2017,06,27,13,37,20.10
2017,06,27,13,38,20.10
2017,06,27,13,39,20.10
2017,06,27,13,40,20.10
2017,06,27,13,41,20.20
2017,06,27,13,42,20.20
2017,06,27,13,43,20.20
2017,06,27,13,44,20.20
2017,06,27,13,45,20.20
2017,06,27,13,46,20.30
2017,06,27,13,47,20.30
2017,06,27,13,48,20.30
2017,06,27,13,49,20.30
2017,06,27,13,50,20.30
2017,06,27,13,51,20.30
2017,06,27,13,52,20.20
2017,06,27,13,53,20.20
2017,06,27,13,54,20.20
2017,06,27,13,55,20.20
2017,06,27,13,56,20.10
2017,06,27,13,57,20.10
2017,06,27,13,58,20.10
2017,06,27,13,59,20.10
2017,06,27,14,00,20.20
2017,06,27,14,01,20.30
2017,06,27,14,02,20.30
2017,06,27,14,03,20.30
2017,06,27,14,04,20.30
2017,06,27,14,05,20.30
2017,06,27,14,06,20.30
2017,06,27,14,07,20.30
2017,06,27,14,08,20.30
2017,06,27,14,09,20.30
2017,06,27,14,10,20.30
2017,06,27,14,11,20.40
2017,06,27,14,12,20.40
2017,06,27,14,13,20.50
2017,06,27,14,14,20.50
2017,06,27,14,15,20.50
2017,06,27,14,16,20.60
2017,06,27,14,17,20.60
2017,06,27,14,18,20.60
2017,06,27,14,19,20.60
2017,06,27,14,20,20.70
2017,06,27,14,21,20.70
2017,06,27,14,22,20.80
2017,06,27,14,23,20.80
2017,06,27,14,24,20.90
2017,06,27,14,25,20.90
2017,06,27,14,26,21.00
2017,06,27,14,27,21.00
2017,06,27,14,28,21.10
2017,06,27,14,29,21.10
2017,06,27,14,30,21.10
2017,06,27,14,31,21.10
2017,06,27,14,32,21.10
2017,06,27,14,33,21.10
2017,06,27,14,34,21.00
2017,06,27,14,35,21.00
2017,06,27,14,36,20.90
2017,06,27,14,37,20.90
2017,06,27,14,38,20.80
2017,06,27,14,39,20.80
2017,06,27,14,40,20.70
2017,06,27,14,41,20.70
2017,06,27,14,42,20.70
2017,06,27,14,43,20.80
2017,06,27,14,44,20.80
2017,06,27,14,45,20.90
2017,06,27,14,46,21.00
2017,06,27,14,47,21.10
2017,06,27,14,48,21.10
2017,06,27,14,49,21.20
2017,06,27,14,50,21.30
2017,06,27,14,51,21.30
2017,06,27,14,52,21.40
2017,06,27,14,53,21.30
2017,06,27,14,54,21.30
2017,06,27,14,55,21.30
2017,06,27,14,56,21.30
2017,06,27,14,57,21.30
2017,06,27,14,58,21.20
2017,06,27,14,59,21.10
2017,06,27,15,00,21.10
2017,06,27,15,01,21.00
2017,06,27,15,02,21.00
2017,06,27,15,03,20.90
2017,06,27,15,04,20.90
2017,06,27,15,05,20.90
2017,06,27,15,06,20.90
2017,06,27,15,07,20.90
2017,06,27,15,08,20.90
2017,06,27,15,09,20.90
2017,06,27,15,10,21.00
2017,06,27,15,11,21.10
2017,06,27,15,12,21.20
2017,06,27,15,13,21.10
2017,06,27,15,14,21.00
2017,06,27,15,15,20.90
2017,06,27,15,16,20.80
2017,06,27,15,17,20.80
2017,06,27,15,18,20.80
2017,06,27,15,19,20.80
2017,06,27,15,20,20.90
2017,06,27,15,21,20.90
2017,06,27,15,22,21.00
2017,06,27,15,23,21.00
2017,06,27,15,24,21.00
2017,06,27,15,25,21.10
2017,06,27,15,26,21.10
2017,06,27,15,27,21.10
2017,06,27,15,28,21.10
2017,06,27,15,29,21.10
2017,06,27,15,30,21.10
2017,06,27,15,31,21.10
2017,06,27,15,32,21.10
2017,06,27,15,33,21.00
2017,06,27,15,34,21.00
2017,06,27,15,35,20.90
2017,06,27,15,36,20.90
2017,06,27,15,37,20.90
2017,06,27,15,38,20.90
2017,06,27,15,39,20.90
2017,06,27,15,40,20.90
2017,06,27,15,41,20.80
2017,06,27,15,42,20.80
2017,06,27,15,43,20.80
2017,06,27,15,44,20.80
2017,06,27,15,45,20.80
2017,06,27,15,46,20.80
2017,06,27,15,47,20.90
2017,06,27,15,48,20.90
2017,06,27,15,49,20.90
2017,06,27,15,50,21.00
2017,06,27,15,51,21.00
2017,06,27,15,52,21.10
2017,06,27,15,53,21.10
2017,06,27,15,54,21.20
2017,06,27,15,55,21.20
2017,06,27,15,56,21.20
2017,06,27,15,57,21.30
2017,06,27,15,58,21.30
2017,06,27,15,59,21.20
2017,06,27,16,00,21.20
2017,06,27,16,01,21.10
2017,06,27,16,02,21.10
2017,06,27,16,03,21.10
2017,06,27,16,04,21.10
2017,06,27,16,05,21.10
2017,06,27,16,06,21.20
2017,06,27,16,07,21.20
2017,06,27,16,08,21.20
2017,06,27,16,09,21.20
2017,06,27,16,10,21.20
2017,06,27,16,11,21.20
2017,06,27,16,12,21.20
2017,06,27,16,13,21.10
2017,06,27,16,14,21.10
2017,06,27,16,15,21.10
2017,06,27,16,16,21.00
2017,06,27,16,17,21.00
2017,06,27,16,18,20.90
2017,06,27,16,19,21.00
2017,06,27,16,20,21.00
2017,06,27,16,21,20.90
2017,06,27,16,22,21.00
2017,06,27,16,23,21.00
2017,06,27,16,24,21.00
2017,06,27,16,25,21.00
2017,06,27,16,26,21.00
2017,06,27,16,27,20.90
2017,06,27,16,28,20.90
2017,06,27,16,29,20.90
2017,06,27,16,30,21.00
2017,06,27,16,31,21.00
2017,06,27,16,32,21.10
2017,06,27,16,33,21.00
2017,06,27,16,34,20.90
2017,06,27,16,35,20.90
2017,06,27,16,36,20.90
2017,06,27,16,37,20.90
2017,06,27,16,38,20.80
2017,06,27,16,39,20.80
2017,06,27,16,40,20.80
2017,06,27,16,41,20.90
2017,06,27,16,42,20.90
2017,06,27,16,43,20.90
2017,06,27,16,44,20.80
2017,06,27,16,45,20.80
2017,06,27,16,46,20.70
2017,06,27,16,47,20.70
2017,06,27,16,48,20.60
2017,06,27,16,49,20.70
2017,06,27,16,50,20.70
2017,06,27,16,51,20.70
2017,06,27,16,52,20.60
2017,06,27,16,53,20.60
2017,06,27,16,54,20.60
2017,06,27,16,55,20.60
2017,06,27,16,56,20.70
2017,06,27,16,57,20.80
2017,06,27,16,58,20.80
2017,06,27,16,59,20.70
2017,06,27,17,00,20.70
2017,06,27,17,01,20.70
2017,06,27,17,02,20.70
2017,06,27,17,03,20.70
2017,06,27,17,04,20.70
2017,06,27,17,05,20.70
2017,06,27,17,06,20.70
2017,06,27,17,07,20.70
2017,06,27,17,08,20.70
2017,06,27,17,09,20.70
2017,06,27,17,10,20.70
2017,06,27,17,11,20.70
2017,06,27,17,12,20.70
2017,06,27,17,13,20.80
2017,06,27,17,14,20.80
2017,06,27,17,15,20.80
2017,06,27,17,16,20.80
2017,06,27,17,17,20.80
2017,06,27,17,18,20.80
2017,06,27,17,19,20.80